Angeles / Pampanga, Philippines

5:50 PM +08 on November 25, 2017 (GMT +0800)
Angeles / Pampanga

Weather History for RPLC - November, 2012

Change the Weather History Date:

Sunday, November 18, 2012

  Actual Average Record
Temperature  
Mean Temperature 78 °F -  
Max Temperature 87 °F - - ()
Min Temperature 69 °F - - ()
Cooling Degree Days 13    
Growing Degree Days 28 (Base 50)    
Moisture  
Dew Point 69 °F    
Average Humidity 75    
Maximum Humidity 94    
Minimum Humidity 52    
Precipitation  
Precipitation 0.00 in - - ()
Sea Level Pressure  
Sea Level Pressure 29.90 in    
Wind  
Wind Speed 4 mph ()    
Max Wind Speed 9 mph    
Max Gust Speed 22 mph    
Visibility 6.2 miles    
Events      
T = Trace of Precipitation, MM = Missing Value Source: Averaged Metar Reports

Daily Weather History Graph

Daily Weather History Graph

Search for Another Location

Airport or City:

Trip Planner

Search our weather history database for the weather conditions in past years. The results will help you decide how hot, cold, wet, or windy it might be!

Date:

Astronomy

Nov. 18, 2012 Rise Set
Actual Time 6:00 AM +08 5:24 PM +08
Civil Twilight 5:38 AM +08 5:47 PM +08
Nautical Twilight 5:12 AM +08 6:13 PM +08
Astronomical Twilight 4:46 AM +08 6:39 PM +08
Moon 10:07 AM +08 (11/18) 9:56 PM +08 (11/18)
Length of Visible Light 12h 09m
Length of Day
11h 23m
Waxing Crescent, 24% of the Moon is Illuminated
Nov 18
Waxing Crescent
Nov 20
First Quarter
Nov 28
Full
Dec 6
Last Quarter
Dec 13
New

Hourly Weather History & Observations

Time (+08) Temp. Heat Index Dew Point Humidity Pressure Visibility Wind Dir Wind Speed Gust Speed Precip Events Conditions
12:00 AM 75.2 °F - 68.0 °F 78% 29.95 in 6.2 mi West 5.8 mph 21.9 mph N/A   Mostly Cloudy
1:00 AM 71.6 °F - 68.0 °F 88% 29.89 in 6.2 mi Variable 3.5 mph 20.7 mph N/A   Mostly Cloudy
2:00 AM 71.6 °F - 68.0 °F 88% 29.89 in 6.2 mi West 4.6 mph - N/A   Mostly Cloudy
3:00 AM 71.6 °F - 68.0 °F 88% 29.89 in 6.2 mi ESE 2.3 mph 21.9 mph N/A   Mostly Cloudy
4:00 AM 71.6 °F - 68.0 °F 88% 29.89 in 6.2 mi Variable 1.2 mph 19.6 mph N/A   Scattered Clouds
5:00 AM 69.8 °F - 68.0 °F 94% 29.89 in 6.2 mi WNW 4.6 mph - N/A   Scattered Clouds
6:00 AM 69.8 °F - 68.0 °F 94% 29.89 in 6.2 mi West 5.8 mph - N/A   Overcast
7:00 AM 73.4 °F - 69.8 °F 88% 29.89 in 6.2 mi West 5.8 mph - N/A   Overcast
8:00 AM 78.8 °F - 69.8 °F 74% 29.92 in 6.2 mi WNW 5.8 mph - N/A   Mostly Cloudy
9:00 AM 82.4 °F 87.2 °F 71.6 °F 70% 29.92 in 6.2 mi NNE 2.3 mph - N/A   Mostly Cloudy
10:00 AM 84.2 °F 89.6 °F 71.6 °F 66% 29.92 in 6.2 mi SE 3.5 mph - N/A   Mostly Cloudy
11:00 AM 86.0 °F 91.8 °F 71.6 °F 62% 29.92 in 6.2 mi East 5.8 mph - N/A   Mostly Cloudy
12:00 PM 86.0 °F 91.8 °F 71.6 °F 62% 29.89 in 6.2 mi ENE 5.8 mph - N/A   Mostly Cloudy
1:00 PM 86.0 °F 90.4 °F 69.8 °F 58% 29.89 in 6.2 mi East 5.8 mph - N/A   Mostly Cloudy
2:00 PM 87.8 °F 91.4 °F 68.0 °F 52% 29.86 in 6.2 mi ENE 9.2 mph - N/A   Mostly Cloudy
3:00 PM 87.8 °F 91.4 °F 68.0 °F 52% 29.86 in 6.2 mi ENE 9.2 mph - N/A   Mostly Cloudy
4:00 PM 87.8 °F 92.6 °F 69.8 °F 55% 29.86 in 6.2 mi ENE 8.1 mph - N/A   Mostly Cloudy
5:00 PM 84.2 °F 88.4 °F 69.8 °F 62% 29.86 in 6.2 mi East 8.1 mph - N/A   Mostly Cloudy
6:00 PM 80.6 °F 83.2 °F 68.0 °F 65% 29.89 in 6.2 mi East 5.8 mph - N/A   Mostly Cloudy
7:00 PM 73.4 °F - 69.8 °F 88% 29.89 in 6.2 mi West 3.5 mph - N/A   Mostly Cloudy
9:00 PM 75.2 °F - 69.8 °F 83% 29.95 in 6.2 mi West 5.8 mph - N/A   Mostly Cloudy
10:00 PM 73.4 °F - 69.8 °F 88% 29.95 in 6.2 mi West 4.6 mph - N/A   Mostly Cloudy
11:00 PM 73.4 °F - 69.8 °F 88% 29.95 in 6.2 mi West 4.6 mph - N/A   Mostly Cloudy